Regional Weather Roundup
Issued by NWS

Home | Current Version | Previous Version | Text Only | Print | Product List | Glossary Off
Versions: 1 2 3 4 5 6 7 8 9 10 11 12 13 14 15 16 17 18 19 20 21 22 23 24 25 26 27 28 29 30 31 32 33 34 35 36 37 38 39 40 41 42 43 44 45 46 47 48 49 50

000
ASUS43 KOAX 211702
RWRNE

WEATHER ROUNDUP FOR NEBRASKA
NATIONAL WEATHER SERVICE OMAHA NE
1200 PM CDT THU AUG 21 2014

NOTES: SATELLITE DATA IS BEING USED TO AUGMENT CLOUD COVER ABOVE
       12000 FEET.
       "FAIR" INDICATES FEW OR NO CLOUDS BELOW 12,000 FEET WITH NO
       SIGNIFICANT WEATHER AND/OR OBSTRUCTIONS TO VISIBILITY.

  * THESE STATIONS DO NOT REPORT WEATHER SUCH AS RAIN...SNOW OR FOG.

NEZ001>004-019>022-054>056-211800-
NEBRASKA PANHANDLE

CITY           SKY/WX    TMP DP  RH WIND       PRES   REMARKS
SCOTTSBLUFF    SUNNY     80  55  42 VRB6      30.02S
ALLIANCE       SUNNY     82  49  31 N10       30.00R
CHADRON        MOSUNNY   80  56  43 NE9       29.98S
KIMBALL        SUNNY     79  46  31 NW10G17   30.06S
SIDNEY         SUNNY     82  49  31 NW14      30.04R
$$

NEZ057>060-069>072-079>082-211800-
SOUTHWEST NEBRASKA

CITY           SKY/WX    TMP DP  RH WIND       PRES   REMARKS
NORTH PLATTE   SUNNY     85  63  47 NE5       29.91R
IMPERIAL       SUNNY     84  53  34 N13       29.96R
LEXINGTON      SUNNY     82  69  66 NW7       29.89R
MCCOOK         SUNNY     89  57  33 NW8       29.91S
OGALLALA       SUNNY     81  53  37 CALM      29.95F
$$

NEZ005>010-023>029-035>040-094-211800-
NORTH CENTRAL NEBRASKA

CITY           SKY/WX    TMP DP  RH WIND       PRES   REMARKS
VALENTINE      SUNNY     81  61  50 N14       29.92S
AINSWORTH      SUNNY     75  63  66 N6        29.92R
BROKEN BOW     SUNNY     82  67  60 N9        29.90R
O`NEILL        PTSUNNY   78  71  80 NW7       29.87R
ORD            MOSUNNY   82  68  62 N7        29.85R
THEDFORD       SUNNY     81  62  52 N8        29.94R
$$

NEZ041-046>049-061>064-073>077-083>087-211800-
SOUTH CENTRAL NEBRASKA

CITY           SKY/WX    TMP DP  RH WIND       PRES   REMARKS
GRAND ISLAND   MOSUNNY   83  70  64 S12       29.84F
AURORA         MOSUNNY   82  71  69 S13       29.85S
HASTINGS       MOSUNNY   76  66  71 S8        29.87R
HEBRON         CLOUDY    80  69  70 S7        29.86R
HOLDREGE       LGT RAIN  77  69  77 CALM      29.86S
KEARNEY *      MOSUNNY   82  72  69 S14       29.88R
YORK           MOSUNNY   81 N/A N/A S13       29.85S
$$

NEZ011>018-030>034-042>045-211800-
NORTHEAST NEBRASKA

CITY           SKY/WX    TMP DP  RH WIND       PRES   REMARKS
NORFOLK        SUNNY     85  70  60 SW12      29.81F
ALBION         SUNNY     82  70  65 SW7       29.84S
BLAIR          PTSUNNY   85  70  60 SW10      29.83S
FREMONT        MOSUNNY   86  67  52 S10       29.82S
TEKAMAH        SUNNY     88  70  55 SW15      29.81R HX  93
WAYNE          SUNNY     84  72  67 W8        29.81S HX  90
$$

NEZ050>053-065>068-078-088>093-211800-
SOUTHEAST NEBRASKA

CITY           SKY/WX    TMP DP  RH WIND       PRES   REMARKS
LINCOLN        CLOUDY    80  69  69 S7        29.82R
OMAHA EPPLEY   PTSUNNY   82  68  62 SW8       29.82S
BEATRICE       CLOUDY    80  71  75 S12       29.85F
FALLS CITY     CLOUDY    91  70  49 S13       29.87F HX  96
NEBRASKA CITY  CLOUDY    77  71  81 S16       29.83F
PLATTSMOUTH    CLOUDY    78  70  75 S6        29.83S
$$

NEZ044-045-051>053-067-211800-
OMAHA AREA

CITY           SKY/WX    TMP DP  RH WIND       PRES   REMARKS
OMAHA EPPLEY   PTSUNNY   82  68  62 SW8       29.82S
BLAIR          PTSUNNY   85  70  60 SW10      29.83S
FREMONT        MOSUNNY   86  67  52 S10       29.82S
MILLARD        PTSUNNY   83  70  64 SW5       29.81F
OFFUTT AFB     PTSUNNY   81  74  78 SW2       29.81F
PLATTSMOUTH    CLOUDY    78  70  75 S6        29.83S
WAHOO          FAIR      85  68  55 S10       29.82S
$$



USA.gov is the U.S. government's official web portal to all federal, state and local government web resources and services.